Theta_e
341 343 344 345 345 346 346 347 346 346 346 345 345 344 345 346 346 346 346 347 347 347 346 346 347 347 347 348 347 347 347 348 348 346 344 342 340 339 338 336 336 336 335 336 336 335 335 335 338 340 341 342 342 343 343 342 342 341 338 337 336 335 333
339 341 343 343 345 345 345 346 346 346 345 345 345 344 345 345 345 346 345 345 345 345 345 346 346 346 346 346 347 347 348 348 348 348 347 345 344 341 339 337 336 335 335 335 335 335 334 335 338 340 341 342 342 342 342 341 340 340 338 336 336 335 331
338 339 341 342 343 343 344 345 345 346 346 345 345 344 345 344 344 344 343 344 344 344 345 346 345 346 345 346 346 347 348 348 348 348 347 347 346 344 342 339 337 335 335 335 335 335 335 335 338 340 341 342 342 342 341 339 338 338 338 336 336 336 331
337 338 339 340 342 342 343 344 344 345 345 344 344 344 343 343 343 344 344 344 344 344 345 345 345 346 346 346 347 347 348 348 348 348 348 347 347 346 345 343 341 338 335 334 334 334 335 336 338 340 341 342 342 341 341 339 338 337 337 336 336 336 334
337 337 338 338 340 341 342 342 343 344 344 344 344 343 343 343 343 344 344 344 344 344 343 344 344 345 346 346 346 346 347 347 348 348 348 348 347 347 347 346 344 341 337 333 333 334 335 337 339 340 341 342 342 342 341 340 338 337 336 336 335 336 336
338 338 337 337 338 339 340 341 342 343 342 343 343 343 343 343 344 344 344 344 344 344 344 345 346 345 345 346 345 346 347 347 348 348 348 348 348 348 347 347 346 344 341 336 333 333 333 335 338 339 341 341 342 342 343 342 340 337 335 335 336 336 336
339 339 338 338 338 338 339 340 341 341 341 342 342 343 343 343 344 344 344 344 344 344 345 346 346 345 345 346 346 347 347 348 348 349 349 349 348 348 348 347 347 346 345 342 336 333 333 334 336 338 340 341 342 342 343 343 341 338 336 335 335 336 336
338 339 339 339 339 338 338 338 340 340 341 342 342 343 343 343 343 343 344 344 344 344 345 345 345 345 345 346 346 347 347 348 349 348 349 349 348 349 348 348 348 347 347 345 340 335 333 333 334 336 339 340 341 342 342 343 342 340 338 336 335 335 336
339 339 339 340 339 339 339 338 339 340 340 341 341 342 343 343 343 344 343 344 344 345 345 345 345 345 346 346 346 347 347 348 348 348 349 349 348 349 349 349 348 348 347 346 343 338 333 333 334 335 337 339 341 342 342 343 342 341 340 338 337 336 335
338 338 338 339 339 340 339 338 339 339 339 341 341 342 343 343 343 343 343 344 344 344 344 345 346 346 346 347 346 347 348 348 349 349 349 349 349 349 349 349 349 348 348 347 346 342 335 333 334 335 337 338 340 342 342 342 342 342 341 340 338 337 336
336 337 337 339 339 340 340 339 340 339 339 340 340 342 342 343 343 343 343 344 344 344 344 345 346 346 347 347 347 348 348 349 349 349 349 349 349 350 349 349 349 348 348 348 347 345 339 334 333 335 336 338 339 341 342 342 342 342 342 340 339 339 337
334 336 336 337 338 339 340 340 341 340 340 340 340 341 342 342 343 343 343 344 344 344 345 345 346 347 347 347 348 348 349 349 349 349 349 349 349 350 350 349 349 349 349 349 348 347 342 336 334 334 336 338 339 340 341 341 342 341 341 341 340 339 339
333 334 334 336 338 338 339 340 341 341 341 341 340 340 342 341 342 343 343 343 344 344 345 345 346 347 347 348 348 348 348 348 349 349 349 349 349 350 350 349 350 349 349 349 348 348 344 338 334 334 336 337 339 340 340 340 341 341 341 341 341 341 340
331 331 331 334 335 337 339 339 340 341 341 342 341 341 341 342 342 343 343 343 344 345 345 346 346 347 348 348 348 348 348 348 349 349 349 349 349 349 349 350 350 349 349 349 349 348 344 339 335 334 335 337 338 339 339 339 340 341 341 340 341 341 341
328 327 328 331 333 336 338 338 340 341 341 342 342 342 342 342 342 343 343 343 344 345 345 345 346 347 347 348 348 347 348 348 349 349 349 350 350 349 350 350 350 349 350 350 349 347 344 341 337 335 335 336 337 338 338 339 339 340 340 340 340 340 340
327 328 328 329 331 334 336 338 339 340 341 342 342 343 343 342 342 343 343 344 344 344 345 346 346 347 347 348 347 347 348 349 350 350 350 350 350 349 350 350 350 350 350 350 350 347 345 343 339 336 335 335 337 338 338 338 338 339 339 340 339 339 340
329 330 329 329 331 333 335 337 339 340 341 342 342 343 343 343 343 343 343 344 344 344 345 346 346 347 347 347 347 347 348 349 350 350 350 349 350 349 350 350 350 350 350 351 350 349 346 344 340 336 334 334 336 337 337 337 337 338 339 339 339 340 340
330 329 329 330 330 332 334 336 338 340 340 341 342 343 343 343 344 344 344 344 344 344 345 346 346 346 347 347 347 348 349 349 349 350 350 349 350 349 350 350 350 350 351 351 351 350 348 344 340 336 335 334 335 335 336 336 336 337 338 339 340 340 340
328 328 328 330 331 332 334 335 336 338 339 340 342 342 342 343 343 344 344 344 345 345 346 346 346 346 347 347 348 348 349 349 349 350 350 350 350 350 350 350 350 350 350 351 351 350 348 344 339 337 335 334 333 334 334 335 335 336 337 338 339 340 341
328 329 327 330 334 334 335 335 336 337 339 339 340 341 342 343 343 344 344 344 345 345 346 346 346 347 347 348 348 349 349 350 350 350 350 350 351 351 350 350 351 351 350 351 351 351 348 344 340 337 335 334 333 333 333 334 334 335 336 337 338 340 342
332 334 333 335 338 338 338 337 336 337 339 339 340 341 342 342 343 343 344 345 346 346 346 346 346 347 348 348 349 350 349 350 350 350 351 352 352 352 351 351 352 351 351 351 352 352 350 345 341 338 335 334 333 333 333 333 333 334 335 335 337 340 342
337 338 338 340 341 341 339 338 337 339 340 340 341 341 341 342 343 344 345 345 346 346 346 347 347 348 348 348 349 350 350 350 351 352 352 353 353 353 352 352 352 352 352 352 352 352 352 349 345 341 337 335 334 333 332 332 333 333 334 335 337 341 343
342 341 341 342 343 343 342 339 338 339 341 341 341 341 342 342 342 344 345 345 346 347 347 347 348 348 348 348 349 350 350 351 352 352 353 353 354 353 353 353 353 353 353 353 353 353 354 353 351 347 343 339 336 333 333 332 332 333 333 335 338 342 344
345 345 344 343 343 343 342 342 341 340 341 341 342 342 343 343 343 343 344 345 346 346 347 348 348 348 348 349 349 350 351 351 352 353 353 353 353 353 353 353 354 354 354 353 353 354 354 354 354 352 349 344 339 335 334 333 333 333 333 336 340 342 344
347 346 345 344 344 343 342 343 344 343 343 342 342 343 343 343 343 344 344 346 347 347 347 347 347 347 348 348 349 350 350 351 352 353 354 354 354 353 354 354 354 354 354 353 354 354 354 355 355 354 353 350 345 341 338 335 334 333 335 338 341 343 344
346 345 344 343 343 342 341 341 342 345 346 345 345 345 345 344 345 344 345 346 347 347 347 346 346 347 347 348 350 351 351 352 352 352 353 353 353 353 354 354 355 355 354 354 354 354 355 355 355 355 355 354 351 349 344 341 338 336 337 341 342 343 345
346 345 344 344 343 343 342 341 341 343 344 345 346 346 347 347 347 346 346 346 346 347 346 346 347 348 349 350 351 351 351 351 352 352 351 350 351 352 353 354 354 354 354 354 354 355 355 356 356 356 355 355 354 353 350 346 343 340 341 343 343 344 347
348 347 347 347 345 343 342 342 342 341 341 341 343 345 347 349 349 348 348 346 346 347 346 347 348 349 349 350 350 350 351 351 352 352 352 352 352 353 353 353 354 354 355 355 355 355 355 356 356 356 356 356 355 355 353 351 349 346 345 345 346 347 350
347 345 344 344 344 345 346 345 344 344 343 343 343 343 345 347 349 351 350 349 349 349 348 349 349 350 350 351 351 351 351 351 351 352 353 353 353 353 353 353 354 355 356 356 357 357 356 357 357 357 357 356 356 355 355 354 353 352 350 349 348 349 351
347 345 342 341 343 346 347 345 345 346 346 345 345 344 345 346 349 351 352 352 352 352 352 352 351 352 352 352 352 352 352 352 352 352 353 354 353 354 355 355 355 356 356 357 357 357 357 357 358 357 357 357 357 356 355 354 354 353 353 352 351 351 353
343 342 342 342 344 345 344 346 346 346 347 347 346 346 346 347 350 352 354 355 354 354 354 354 354 354 354 354 354 354 353 354 353 353 353 353 353 354 354 355 355 356 357 358 359 358 358 358 358 357 357 357 357 356 354 353 354 354 354 353 352 353 354
337 336 335 336 338 338 338 342 345 345 347 348 347 347 347 347 348 350 351 352 353 354 354 355 356 357 356 356 357 356 355 355 355 355 354 354 354 354 354 355 356 356 357 358 359 359 359 358 358 358 358 357 357 357 355 354 353 354 354 354 354 355 356
339 339 338 336 335 333 332 333 334 335 338 342 344 346 347 347 347 347 347 348 348 348 349 351 353 355 357 358 359 359 358 357 356 356 356 355 355 356 355 357 357 357 358 358 359 359 359 359 359 358 358 358 357 357 356 355 354 354 354 354 355 356 357
341 343 345 345 345 343 341 340 339 338 337 338 340 342 345 347 348 347 347 346 345 345 345 346 349 352 356 358 359 360 360 359 358 358 357 356 356 356 356 357 357 358 358 358 358 358 359 359 359 358 358 358 358 357 357 356 356 355 353 354 356 358 359
339 341 343 345 346 346 346 345 345 345 345 344 344 344 345 347 347 347 347 346 346 345 345 346 347 350 353 356 359 360 361 361 361 359 359 358 357 357 357 357 357 357 358 358 358 358 358 358 359 359 358 358 358 358 357 357 356 355 354 354 357 359 359
340 340 341 342 343 344 345 344 344 345 345 346 346 346 345 345 345 346 345 345 344 344 344 344 345 346 348 351 353 356 359 361 362 362 361 360 359 358 358 358 357 358 358 358 358 358 358 358 357 358 358 359 358 358 358 357 355 354 356 358 359 359 358
340 340 340 341 342 342 342 343 343 344 344 344 344 344 343 343 343 342 342 342 342 342 342 342 343 343 344 345 347 350 354 357 360 361 361 361 359 358 358 358 358 358 358 358 358 358 358 358 358 358 358 358 358 359 358 357 356 356 357 359 359 359 357
340 340 340 341 341 342 342 342 343 343 343 343 343 342 342 342 342 342 342 342 342 342 343 343 343 343 344 345 345 347 349 352 355 357 359 360 360 358 358 358 358 359 359 359 358 359 359 359 359 359 359 359 358 358 357 356 356 357 358 358 357 356 351
Wind_Speed
39 42 46 47 48 49 51 53 54 54 54 54 55 54 53 53 53 53 52 52 53 51 50 50 49 49 48 47 45 43 41 39 37 36 37 38 37 36 34 33 33 33 33 33 31 30 28 27 26 26 26 26 25 24 22 19 19 19 18 18 17 16 15
34 40 44 46 48 50 52 53 54 54 55 55 56 55 54 55 54 54 54 53 53 52 51 51 50 50 49 48 46 45 43 41 39 38 37 37 36 35 34 33 32 32 32 32 31 30 29 28 27 26 26 27 26 24 22 20 20 20 20 19 18 17 16
35 39 43 47 50 53 54 54 54 54 55 55 55 55 56 56 56 56 55 54 54 53 53 52 52 51 50 49 48 47 45 44 42 40 39 37 35 34 33 33 32 32 31 31 32 31 30 29 28 27 27 27 27 25 22 20 20 21 21 21 20 18 17
35 39 44 48 51 53 53 53 54 55 56 56 56 57 57 57 57 56 56 55 54 54 53 53 52 52 51 50 49 48 47 46 44 42 40 38 36 34 33 34 33 32 32 32 32 32 31 29 29 28 28 28 27 25 23 21 21 22 22 22 22 20 19
35 38 41 44 48 50 50 52 55 56 57 57 57 57 57 57 57 56 56 56 56 55 53 52 52 51 51 50 50 49 48 47 45 44 42 40 38 36 35 34 33 32 33 32 32 32 31 30 29 29 28 28 28 26 24 22 22 23 23 24 24 22 21
35 37 39 43 48 50 51 53 56 58 58 58 57 57 57 56 55 56 56 56 56 56 54 53 53 52 52 51 50 50 49 48 47 45 44 42 40 39 37 35 33 33 32 32 33 33 32 31 30 29 29 29 28 27 26 24 23 24 25 25 25 24 23
38 39 42 44 47 50 53 55 55 57 59 58 57 56 56 54 54 55 55 55 56 56 55 55 55 54 53 52 51 51 50 50 48 47 45 44 42 41 39 37 35 33 32 32 33 34 33 32 31 30 30 30 30 29 28 26 24 25 26 26 26 26 25
39 39 41 43 46 49 51 53 54 55 56 57 55 54 53 53 53 53 54 55 55 55 55 56 56 55 54 53 52 52 51 50 49 48 47 45 44 43 41 39 36 34 33 33 33 34 34 33 32 32 32 31 31 30 29 28 26 26 27 28 28 27 27
38 38 41 42 43 45 46 50 53 52 53 54 54 54 53 52 52 53 54 55 55 55 56 56 56 55 54 54 53 52 51 50 49 48 48 47 46 45 43 40 38 36 35 34 33 34 35 35 34 33 33 33 32 31 31 30 28 28 28 28 29 29 28
37 38 40 38 37 39 40 44 47 47 49 52 54 54 53 52 53 54 54 54 54 55 56 56 56 55 55 54 54 52 52 51 50 49 49 48 47 46 44 41 39 37 36 35 34 34 35 35 35 35 35 35 34 33 33 32 30 30 30 29 30 30 29
33 34 36 35 36 37 38 40 44 46 48 50 53 54 53 54 54 54 55 55 55 56 56 55 55 55 55 55 54 53 53 52 51 51 50 49 47 46 44 42 40 38 37 36 35 35 36 36 37 36 36 36 35 35 34 34 32 32 31 30 30 30 30
26 28 31 34 37 39 39 40 44 47 49 50 51 53 53 54 55 55 55 55 56 56 55 55 55 55 55 55 54 53 53 52 52 51 50 49 47 46 44 43 41 40 38 37 36 36 37 37 38 38 38 37 36 35 35 35 34 34 32 31 30 30 30
23 24 26 30 34 37 39 39 43 47 49 50 51 52 53 54 55 55 55 56 56 55 54 54 54 55 55 54 54 54 54 53 53 52 51 49 47 45 44 43 42 41 39 37 37 37 38 39 39 39 38 38 37 36 36 35 36 35 33 32 31 31 30
24 24 24 27 31 34 37 39 43 46 48 50 50 51 52 54 55 55 56 56 55 54 54 54 54 54 54 54 54 54 54 53 53 51 50 48 46 45 44 43 43 41 39 38 38 38 39 39 40 39 39 39 38 37 37 36 37 36 35 33 32 31 30
23 24 24 27 29 32 35 38 42 45 48 49 49 50 51 52 53 54 54 55 54 54 53 53 53 54 54 55 55 55 54 53 53 52 50 49 47 45 44 44 42 41 40 39 39 39 39 40 40 40 40 40 39 39 38 38 38 37 35 33 32 31 30
21 21 21 23 27 29 32 36 40 43 46 48 48 49 51 51 52 54 54 54 54 54 53 53 53 53 54 55 55 54 53 53 53 52 51 50 48 46 45 44 43 41 40 40 40 40 40 40 40 41 42 41 40 40 40 40 39 37 35 33 32 31 30
19 19 20 22 25 27 30 33 37 41 44 46 48 49 50 51 52 53 53 53 53 54 53 53 53 53 54 55 54 53 53 53 53 53 52 51 49 47 46 45 43 42 41 41 41 41 41 41 42 42 43 43 42 41 41 41 39 36 34 33 32 31 29
20 20 21 22 24 25 27 31 36 40 42 45 47 48 49 49 50 51 52 52 53 53 52 52 53 54 54 54 53 53 53 53 53 53 52 51 49 48 46 46 44 43 42 42 42 42 43 43 43 43 44 44 43 43 43 42 39 36 34 33 32 30 29
22 23 22 23 24 25 25 28 33 38 41 43 45 46 46 47 48 49 50 51 52 51 51 52 52 53 54 54 53 53 53 53 53 53 53 52 50 49 48 47 46 45 44 44 43 43 44 44 44 44 45 45 45 45 44 43 40 37 35 34 31 30 29
22 24 24 24 25 26 25 25 29 34 38 41 42 43 44 46 47 46 47 48 49 50 51 52 52 53 54 53 53 53 52 52 53 53 53 52 51 50 50 49 48 47 45 44 44 45 46 46 45 45 45 46 45 45 45 43 40 38 37 34 32 30 29
18 20 22 21 21 22 22 21 25 30 34 37 39 40 42 44 44 45 46 47 48 49 50 50 52 52 53 53 52 52 52 52 53 53 53 52 51 51 51 51 50 49 47 47 47 47 46 46 46 46 46 46 45 46 46 44 41 39 37 35 33 31 29
11 13 15 15 15 16 16 17 21 25 29 32 35 37 39 41 42 44 45 46 46 47 47 48 50 51 51 51 52 52 52 52 52 52 52 51 51 51 51 51 51 50 49 48 48 48 48 47 47 47 47 46 46 46 46 44 42 40 38 35 34 32 30
3 4 6 8 9 10 11 13 17 21 24 28 30 32 35 37 39 40 41 43 44 44 45 47 48 48 49 50 51 51 51 51 51 51 51 51 51 51 51 51 51 50 49 49 49 50 50 50 49 48 48 47 47 47 46 44 42 40 38 36 36 34 31
6 5 3 1 3 5 6 9 12 16 20 24 26 28 30 32 35 36 38 41 42 42 43 46 47 46 47 49 50 50 50 50 50 51 51 51 51 51 50 50 50 50 49 49 49 50 50 50 49 49 49 49 48 47 46 44 42 40 38 37 37 35 31
12 12 11 9 7 5 2 1 5 9 13 16 19 21 22 25 28 31 34 37 39 40 43 45 45 45 45 46 47 48 48 48 49 49 50 51 51 50 49 49 49 49 48 48 49 49 49 49 50 51 51 50 50 48 47 45 42 40 39 39 38 34 30
15 16 15 14 14 12 10 7 4 4 7 9 10 11 12 15 18 23 28 32 36 39 42 43 43 43 43 44 44 46 47 47 48 49 49 49 48 48 48 49 49 49 48 47 48 48 48 49 50 51 52 52 51 50 48 46 44 42 41 40 37 33 29
13 15 16 16 16 16 16 14 12 9 6 4 3 5 7 9 12 16 21 27 33 36 38 40 41 41 41 42 43 44 45 47 48 49 48 46 46 47 47 48 49 49 49 48 47 47 48 48 50 51 52 52 51 50 50 48 45 44 42 40 37 32 29
12 12 13 14 14 14 14 14 14 14 12 10 7 3 3 6 9 11 16 22 26 28 31 34 37 38 39 40 42 43 45 46 48 49 49 47 48 48 48 47 48 49 50 50 49 48 47 48 49 50 51 51 51 51 50 48 47 46 43 40 36 32 29
11 10 10 11 12 13 13 12 12 12 12 11 9 7 4 2 4 8 13 18 21 23 27 30 32 34 36 38 40 42 44 45 46 48 49 48 49 50 49 48 49 50 52 53 53 51 49 49 49 50 50 50 50 50 49 48 48 47 44 39 34 30 28
10 9 8 8 9 10 11 10 10 10 9 9 8 7 6 4 1 4 8 13 16 20 23 26 28 31 33 36 38 40 42 43 45 46 47 47 48 50 50 50 50 51 53 55 55 55 53 52 51 50 50 50 50 50 49 48 48 46 42 37 32 29 26
9 8 7 6 6 6 6 7 8 7 7 6 6 5 5 5 3 1 4 8 11 14 16 19 23 27 30 32 35 37 39 41 44 45 46 46 48 49 51 53 53 53 54 55 56 56 56 54 52 51 51 51 52 50 48 48 48 45 41 36 32 28 26
8 7 6 4 3 3 4 3 3 3 3 3 2 1 2 4 4 4 4 5 7 9 11 13 16 20 24 27 30 33 36 39 42 44 46 47 49 50 52 54 54 55 55 54 54 54 54 54 53 52 52 52 52 51 50 48 47 44 40 36 32 30 29
9 8 6 4 2 0 1 2 3 3 3 4 4 4 5 6 7 7 8 8 9 10 11 12 13 16 19 22 25 28 32 36 40 42 45 47 49 51 52 53 53 54 55 54 54 55 56 56 56 55 55 54 53 53 52 50 47 43 40 37 34 32 31
11 9 8 6 4 2 0 1 2 4 5 7 8 9 9 9 10 10 11 12 14 14 15 15 15 16 17 19 22 24 28 33 38 41 44 47 49 51 53 53 54 55 57 58 59 60 59 58 57 57 56 55 54 53 52 51 48 45 41 38 37 36 34
14 13 11 9 7 6 4 3 2 1 3 5 7 9 10 11 12 13 14 15 17 17 18 18 18 17 17 16 18 20 23 28 32 37 41 45 48 50 52 54 55 57 59 61 62 63 62 60 59 59 58 56 54 54 53 51 48 45 41 38 37 37 35
20 19 16 13 11 9 8 8 7 5 4 4 4 5 6 8 11 12 14 16 18 19 20 20 21 21 20 19 18 18 20 23 27 31 36 40 45 48 51 53 54 57 60 62 62 64 64 62 60 59 58 57 56 53 50 48 44 41 39 38 37 35 33
23 22 20 18 16 15 14 13 11 10 9 8 8 7 5 5 5 6 8 9 11 12 14 16 18 20 21 21 20 19 19 20 23 26 30 34 39 43 47 52 55 57 60 62 64 65 66 65 63 62 60 58 55 52 48 42 37 37 38 39 38 35 31
24 24 23 22 21 19 18 17 16 16 15 14 12 11 10 9 8 8 7 6 6 6 7 7 9 11 13 16 17 18 19 20 23 25 28 31 33 35 38 44 52 59 62 64 66 67 67 66 64 62 62 60 54 48 44 38 34 37 41 40 37 34 29
Wind_Direction
213 213 214 216 217 218 219 220 220 221 221 221 221 222 223 223 224 225 226 227 228 229 230 230 230 231 231 231 230 230 232 234 235 235 235 235 236 237 237 235 235 237 238 239 241 242 243 244 245 244 241 242 243 243 245 247 246 244 241 240 241 243 245
213 214 214 214 217 218 220 221 221 221 221 222 222 222 222 224 224 225 226 228 229 230 231 231 231 231 232 233 233 232 231 232 234 235 236 236 237 237 236 235 235 236 238 239 240 242 244 244 245 244 241 240 242 242 244 246 245 243 241 239 240 241 242
213 214 214 214 216 218 220 220 221 222 222 222 222 221 222 224 225 226 227 228 230 231 231 231 232 232 233 233 233 233 232 232 233 234 235 237 237 237 236 235 235 236 238 239 240 241 242 242 243 243 241 240 241 242 245 247 245 242 240 240 239 240 242
217 217 216 216 217 219 219 219 220 222 223 223 223 224 225 226 227 227 227 229 230 230 230 231 232 233 233 233 234 234 234 233 233 234 235 237 238 239 238 237 236 235 236 238 238 239 240 241 242 242 241 240 240 242 245 247 246 242 240 240 240 239 240
220 219 217 216 218 219 219 219 220 222 223 224 224 225 227 227 227 226 227 229 230 231 232 233 232 233 233 234 235 236 236 236 235 235 235 236 237 238 239 239 238 236 236 237 237 238 238 238 239 241 241 241 241 243 245 246 246 243 242 241 240 240 239
222 220 218 217 217 218 219 220 220 221 223 224 224 225 227 226 224 224 227 228 229 231 232 231 232 233 234 235 236 236 237 237 237 236 236 237 237 238 239 240 240 239 237 237 237 239 238 238 238 240 242 243 244 244 245 246 245 243 243 242 242 241 240
224 221 220 219 218 218 219 220 221 221 222 224 225 226 226 224 223 224 225 226 228 230 229 230 231 233 234 235 235 236 236 237 237 237 237 237 238 238 239 240 241 242 241 239 238 239 240 239 238 239 241 243 245 246 247 246 245 244 245 245 244 243 241
227 225 224 223 222 220 219 220 222 221 221 222 223 224 223 222 223 223 224 226 227 228 228 230 232 233 234 234 235 236 237 237 238 238 238 238 238 239 239 240 241 243 243 242 239 239 240 240 239 239 240 243 245 246 247 247 245 245 246 247 247 246 244
230 229 229 228 226 223 221 221 222 221 220 220 221 222 222 222 222 223 225 227 226 226 229 232 233 233 233 233 235 236 236 236 237 238 238 238 239 239 239 240 241 242 244 244 241 239 239 240 240 240 240 242 243 245 246 246 245 245 246 247 249 249 248
233 232 233 232 229 227 223 221 223 222 220 220 220 221 221 221 223 224 226 226 225 228 232 232 231 232 232 233 235 235 235 235 236 237 237 238 238 239 240 240 241 242 243 244 243 241 240 240 240 240 240 241 242 243 244 245 244 245 246 247 250 251 251
235 234 235 233 231 230 225 220 221 222 222 221 220 220 220 221 223 224 226 226 227 230 232 231 230 230 231 233 233 233 234 235 235 236 237 238 238 239 240 240 240 241 243 244 244 243 240 239 239 240 240 241 241 242 243 243 244 245 246 247 250 252 253
242 238 237 235 233 231 226 220 220 223 223 223 221 220 220 222 223 225 226 228 230 231 231 229 229 229 230 231 232 232 234 235 235 236 236 237 238 239 239 240 240 240 241 243 243 243 241 239 239 239 240 240 241 242 243 243 244 245 245 247 250 251 253
249 245 244 243 238 233 227 221 221 223 224 224 223 222 221 222 224 225 227 228 229 230 229 229 229 228 229 230 231 232 234 235 236 236 236 237 238 239 240 240 240 240 240 242 242 242 240 239 238 239 240 240 241 242 242 243 243 244 245 246 248 250 252
253 253 251 247 242 235 228 223 223 224 224 224 223 223 223 223 225 226 227 229 229 228 228 228 228 228 228 229 230 232 235 236 236 236 236 237 238 239 240 240 240 240 240 241 241 240 239 238 238 238 239 240 241 241 242 243 243 244 244 245 247 249 251
255 257 255 251 246 239 232 228 226 224 224 224 223 223 223 223 224 225 227 228 228 227 229 229 228 228 228 228 231 234 235 235 234 235 235 236 237 238 238 238 239 239 240 240 240 239 238 237 237 238 239 240 240 241 242 242 243 243 243 244 246 248 251
261 261 262 260 254 245 237 232 230 228 226 224 222 223 223 223 225 225 226 227 227 228 229 228 228 228 228 229 233 235 234 233 233 233 234 235 236 237 237 237 237 237 238 238 239 238 237 237 236 236 238 239 239 241 241 242 242 243 243 244 245 247 251
261 262 267 268 262 252 243 235 231 228 226 225 224 223 223 224 226 227 227 227 227 229 229 227 228 229 229 232 235 234 232 232 232 232 233 234 235 236 235 235 235 235 236 236 237 237 237 236 235 235 236 237 238 240 241 242 242 243 243 244 244 246 249
260 268 273 273 269 260 249 240 233 228 227 228 227 224 224 226 227 227 227 228 229 229 228 227 228 230 232 234 234 231 231 232 232 232 233 233 234 234 234 234 234 234 234 235 235 236 236 235 234 234 235 237 238 239 241 242 243 243 244 243 244 246 248
267 273 276 275 274 271 262 251 241 234 231 230 228 227 228 229 228 230 232 232 231 229 227 228 230 232 234 233 231 230 231 231 231 232 233 233 233 233 233 233 234 233 233 233 234 235 235 234 234 234 235 236 237 239 240 242 243 243 244 244 244 245 247
264 269 272 274 276 277 275 264 248 240 236 233 233 234 233 231 231 235 235 233 231 228 228 230 231 232 233 232 231 232 231 230 231 232 232 232 231 231 232 233 234 233 233 233 233 234 234 234 233 233 234 235 237 239 241 242 243 243 243 244 244 245 246
261 263 266 270 274 277 279 270 251 241 238 236 236 235 233 232 234 234 233 231 230 230 230 231 232 232 232 231 231 231 230 230 231 231 231 230 230 231 232 233 234 235 234 234 234 234 234 234 234 233 234 235 237 239 241 242 242 243 244 244 245 245 245
256 261 261 267 273 273 274 266 250 242 240 239 237 234 232 234 234 231 230 230 230 231 232 231 230 230 231 231 232 232 231 230 230 229 229 229 229 231 232 234 235 235 236 236 236 237 236 236 236 235 235 235 236 238 240 241 242 243 243 244 245 244 243
232 267 270 271 274 271 267 260 249 242 240 238 237 236 235 235 234 232 231 231 231 230 231 231 230 232 233 234 234 233 232 230 229 229 229 229 230 232 234 234 235 236 236 237 238 238 238 238 238 238 237 237 237 238 239 240 241 242 242 243 243 242 240
115 96 74 14 302 280 263 255 248 241 239 239 238 237 236 234 234 235 234 233 232 231 231 232 233 234 235 236 236 234 233 232 231 230 230 231 233 235 235 235 236 236 237 238 239 240 241 241 241 240 240 239 238 238 240 240 240 241 241 242 242 241 240
102 93 84 75 62 40 18 254 234 227 230 237 240 239 238 236 235 236 236 235 233 232 233 235 237 238 239 239 238 235 234 233 232 232 232 233 235 237 236 236 236 236 237 239 241 242 243 243 243 243 242 241 241 240 241 241 241 241 242 242 242 241 239
100 94 87 79 72 63 62 74 111 168 198 220 233 239 242 242 243 242 240 238 235 234 236 240 243 243 243 240 237 234 235 235 234 234 235 237 239 239 238 237 237 236 237 239 241 242 243 244 245 244 244 243 243 242 242 242 241 241 242 242 242 241 238
97 91 86 82 78 74 71 73 78 86 100 134 193 228 237 242 246 246 244 241 238 239 243 245 245 243 240 238 236 236 237 237 237 237 238 240 241 239 238 238 238 238 238 237 238 240 241 243 245 246 246 245 244 244 243 243 242 242 242 242 241 240 237
105 96 91 88 83 82 78 74 75 75 75 77 82 109 197 229 240 244 246 246 247 251 254 252 249 247 244 242 241 240 239 239 240 239 239 239 238 237 237 239 239 239 238 236 235 237 238 240 242 243 244 245 245 245 245 245 244 244 243 242 241 239 235
115 108 102 95 86 84 82 78 77 73 68 65 65 72 90 150 215 232 246 252 257 260 259 256 255 253 250 248 246 244 243 242 242 241 239 237 237 237 237 238 237 237 237 235 233 233 234 236 237 238 240 242 243 244 245 245 245 245 244 242 241 238 236
107 104 100 89 84 85 86 86 82 75 69 62 53 48 49 53 108 217 240 249 254 255 255 254 255 254 253 252 251 249 247 246 244 243 241 240 239 238 238 238 237 237 236 234 232 231 231 232 232 233 235 237 239 241 243 244 244 245 244 242 239 236 233
98 95 87 79 76 72 77 88 89 86 84 73 55 39 24 20 20 290 246 247 251 255 255 254 253 251 251 253 253 252 251 248 246 245 244 243 241 240 240 239 236 235 234 232 229 228 229 229 229 229 231 233 235 237 240 241 241 241 241 239 236 232 229
92 88 85 86 75 34 27 45 63 84 100 91 74 10 334 328 322 314 289 269 268 268 266 264 261 257 255 254 254 255 254 251 249 248 247 244 241 240 241 238 234 232 232 230 228 228 228 227 227 228 229 230 231 233 235 236 236 235 235 233 229 225 225
84 86 85 91 97 72 274 270 280 281 284 291 286 284 290 291 295 299 294 287 283 277 274 274 271 268 265 261 259 258 256 254 253 250 248 245 241 239 238 236 233 232 230 228 228 228 228 227 226 226 225 226 228 230 232 232 230 229 228 224 221 220 219
71 73 73 70 65 58 54 234 243 250 260 271 277 284 291 292 291 290 286 283 280 276 276 277 273 271 270 265 261 259 257 256 256 253 250 247 244 241 238 236 234 232 232 232 231 229 227 226 226 225 225 224 224 225 226 227 227 224 219 214 213 213 209
66 66 65 59 48 34 20 12 5 303 263 260 265 274 282 286 288 288 286 285 284 282 281 280 278 280 280 274 266 261 258 258 259 257 256 254 250 247 244 242 239 236 235 236 236 233 231 231 230 229 227 225 224 223 223 224 226 223 215 208 207 207 204
72 69 65 60 55 46 36 26 17 6 354 335 314 298 289 284 282 282 282 283 284 284 284 282 281 282 284 284 281 273 267 264 261 261 261 260 257 255 252 248 245 242 240 239 239 238 236 236 237 237 233 228 227 228 228 228 227 224 215 206 202 202 204
74 70 66 61 57 54 51 48 45 43 40 35 29 24 11 343 318 300 290 286 284 286 286 284 281 279 279 281 284 283 282 278 272 267 264 260 258 258 256 252 250 247 244 242 241 239 237 235 236 238 236 231 228 228 227 227 226 221 212 202 195 194 196
71 68 64 58 54 54 57 59 61 61 60 58 55 51 47 42 40 41 42 35 21 6 353 337 319 305 296 292 290 291 291 291 288 283 275 267 261 259 258 256 253 249 246 244 241 239 236 233 231 231 232 231 229 224 218 216 218 213 204 195 189 188 187